www.pogodaiklimat.ru

Погода и климат >> Архив погоды >> Россия >> Камчатский край >> Долиновка


ПОГОДА в Долиновке

  • Прогноз погоды в Долиновке
  • Монитор погоды в Долиновке

АРХИВ ПОГОДЫ в Долиновке

Время (UTC), дата Ветер
(напр.,м/с)
 
Видим.   Явления Облачность Т
(С)
Тd
(С)
f
(%)
Тe
(С)
Тes
(С)
Комфортность P
(гПа)
Po
(гПа)
Тmin
(С)
Tmax
(С)
R
(мм)
R24
(мм)
S
(см)
12 14.03 штиль 0 20 км ясно -22.7 -24.9 82 -23 -23 1008.6 994.7
15 14.03 штиль 0 20 км ясно -27.3 -30.3 76 -27 -27 1007.5 993.3
18 14.03 штиль 0 20 км ясно -29.5 -32.7 74 -30 -30 1008.0 994.7
21 14.03 штиль 0
{1}
50 км ясно -27.5 -30.7 74 -28 -26 1009.1 995.0 -31.7 69
00 15.03 ЮЗ 1 50 км ясно -13.0 -18.4 64 -15 -8 1009.4 996.0
03 15.03 ЮЗ 1 50 км ясно -6.4 -19.0 36 -8 -1 1007.8 994.7
06 15.03 штиль 0 50 км ясно -4.0 -19.8 28 -4 -3 1007.7 994.7
09 15.03 СВ 1
{4}
20 км ясно -14.7 -19.3 68 -17 -17 1009.5 996.0 -2.4
12 15.03 штиль 0 20 км ясно -24.9 -27.6 78 -25 -25 1010.9 997.3
15 15.03 штиль 0 20 км ясно -28.3 -31.3 75 -28 -28 1011.8 997.3
18 15.03 штиль 0 20 км ясно -31.6 -35.1 71 -32 -32 опасность
обморожения
1013.2 998.7
21 15.03 штиль 0
{3}
50 км ясно -28.8 -32.5 70 -29 -27 1014.5 1000.2 -33.0 68
00 16.03 штиль 0 50 км 9/0
[Ci sp]
-12.1 -22.5 42 -12 -5 1013.7 1000.3
03 16.03 З 1 50 км 9/3 1000 м
[Sc Ci sp]
-5.1 -23.5 22 -6 -6 1013.1 1000.0
06 16.03 штиль 0 50 км 9/5 1000 м
[Sc Ci sp]
-3.8 -22.9 21 -4 -4 1013.0 1000.0
09 16.03 штиль 0
{2}
20 км 8/0
[Ci sp]
-13.8 -19.2 64 -14 -14 1013.9 1000.5 -2.4
12 16.03 штиль 0 20 км 8/0
[Ci fib]
-20.6 -23.6 77 -21 -21 1016.6 1002.7
15 16.03 штиль 0 20 км 3/0
[Ci fib]
-24.9 -27.3 80 -25 -25 1016.9 1002.7
18 16.03 штиль 0 20 км 4/0
[Ci sp]
-27.2 -30.1 76 -27 -27 1017.0 1002.7
21 16.03 штиль 0
{2}
50 км 4/0
[Ci sp]
-25.7 -29.5 70 -26 -24 1015.4 1001.2 -28.3 68
00 17.03 штиль 0 50 км 3/0
[Ci sp]
-9.9 -18.8 48 -10 -2 1013.2 1000.0
03 17.03 З 1 50 км 3/0
[Ci fib]
-2.7 -16.7 33 -4 +2 1010.2 997.3
06 17.03 штиль 0 50 км 6/0
[Ci fib]
-1.4 -18.0 27 -1 -1 1008.8 996.0
09 17.03 штиль 0
{3}
20 км 3/3 1000 м
[Sc]
-12.9 -16.7 73 -13 -13 1009.4 996.0 +0.3
12 17.03 штиль 0 20 км 4/0
[Ci fib]
-19.6 -21.1 88 -20 -20 1009.8 996.0
15 17.03 штиль 0 20 км 6/0
[Ci fib]
-22.5 -25.1 79 -23 -23 1008.6 994.7
18 17.03 штиль 0 н/о 7 баллов -23.7 -26.6 77 -24 -24 1007.3 993.3
21 17.03 штиль 0
{1}
50 км 9/3 1000 м
[Sc Ac As Ci fib]
-23.0 -25.9 77 -23 -22 1007.0 993.1 -25.0 68
00 18.03 З 2 50 км 9/3 1000 м
[Sc Ac As Ci fib]
-7.6 -14.0 60 -12 -9 1005.4 992.4
03 18.03 ЮЗ 3 50 км 9/3 1000 м
[Sc Ci fib]
-0.8 -13.3 38 -5 -4 1004.8 992.0
06 18.03 З 2
{10}
50 км 9/3 1000 м
[Sc Ci fib]
-1.5 -16.4 31 -4 -4 1004.8 992.0
09 18.03 З 1
{10}
20 км 9/3 1000 м
[Sc Ac As Ci fib]
-6.5 -15.0 51 -8 -8 1004.8 991.9 -0.7
12 18.03 штиль 0 20 км 10/3 1000 м
[Sc Ac As]
-9.2 -13.8 69 -10 -10 1006.5 993.3
15 18.03 штиль 0 20 км 10/4 1000 м
[Sc Ac As]
-12.9 -15.5 81 -13 -13 1006.7 993.3
18 18.03 штиль 0 20 км 8/3 1000 м
[Sc Ac As Ci fib]
-18.6 -20.0 89 -19 -19 1005.7 992.0
21 18.03 штиль 0
{3}
50 км 3/0
[Ci fib]
-17.7 -20.4 79 -18 -16 1004.4 990.9 -22.4 67
00 19.03 З 3 50 км 9/4 1000 м
[Sc Ac As Ci fib]
-3.4 -12.1 51 -8 -6 1003.8 991.0
03 19.03 СЗ 3 50 км 9/4 1000 м
[Sc Ci fib]
-1.4 -16.7 30 -5 -5 1004.8 992.0
06 19.03 СЗ 3 50 км 9/6 1000 м
[Sc Ci fib]
-2.9 -18.8 28 -7 -7 1004.9 992.0
09 19.03 СВ 1
{9}
20 км 9/4 1000 м
[Sc Ac As Ci fib]
-6.2 -19.1 35 -8 -8 1006.3 993.3 -1.1
12 19.03 С 1 20 км 9/4 1000 м
[Sc Ci fib]
-10.0 -18.2 51 -12 -12 1006.5 993.3
15 19.03 СВ 1 20 км слаб. ливневой снег 10/10 600 м
[Cb cap]
-12.3 -17.1 67 -15 -15 1006.6 993.3
18 19.03 СВ 1 10 км слаб. ливневой снег 10/10 600 м
[Cb cap]
-13.4 -16.0 81 -16 -16 1005.4 992.0
21 19.03 СВ 1
{6}
1000 м ливневой снег 10/10 600 м
[Cb cap]
-14.0 -16.4 82 -16 -16 1004.3 990.9 -14.1 2 69
00 20.03 В 1 4000 м слаб. ливневой снег 10/10 300 м
[Cb cap]
-13.1 -16.1 78 -15 -15 1003.3 990.0
03 20.03 СВ 1 10 км слаб. ливневой снег 10/10 300 м
[Cb cap]
-10.8 -14.7 73 -13 -13 1002.5 989.3
06 20.03 СВ 1 1000 м ливневой снег 10/10 300 м
[Cb cap]
-11.0 -13.3 83 -13 -13 1002.5 989.3
09 20.03 СВ 1
{5}
1000 м ливневой снег 10/10 300 м
[Cb cap]
-12.5 -14.3 86 -15 -15 1004.0 990.7 -10.2 6
12 20.03 штиль 0 20 км в посл. час ливневой снег 10/10 300 м
[Cb cap]
-13.0 -15.3 83 -13 -13 1003.6 990.3
15 20.03 З 2 10 км слаб. ливневой снег 10 баллов -14.2 -16.2 85 -19 -19 1005.4 992.0
18 20.03 штиль 0 20 км слаб. ливневой снег 9 баллов -15.6 -17.4 86 -16 -16 1004.2 990.7
21 20.03 ЮЗ 1
{4}
50 км в посл. час ливневой снег 9/8 600 м
[Cb cap Ci fib]
-15.5 -17.6 84 -18 -18 1002.7 989.3 -16.8 3 77
00 21.03 ЮЗ 2 50 км {ливн. осадки} 9/0
[Ac As Ci fib]
-9.7 -14.3 69 -14 -10 1001.5 988.4
03 21.03 ЮЗ 2 50 км 9 баллов -6.5 -16.2 46 -10 -10 1002.3 989.3
06 21.03 З 3 50 км 9 баллов -7.2 -16.1 49 -12 -12 1003.8 990.7

 

Местоположение метеостанции Долиновка (Камчатский край, Россия): широта 55.12 долгота 159.00 высота над уровнем моря 102 м.

В архиве по умолчанию представлена погода в Долиновке за последнюю неделю. Архивные данные за месяц целиком и за предыдущие месяцы, начиная с января 2011 года, Вы можете получить, выбрав интересующий диапазон дат из раскрывающегося списка и нажав кнопку "Ввод!".


*Определитесь, кто Вы:
робот инопланетянин человек

Внимание! Время в таблицах - всемирное. Для получения местного времени необходимо прибавить поправку, которая равна 12 ч.

Смотрите также архив погоды в соседних городах и на ближайших метеорологических станциях:

Погода в Мильково (Камчатский край, Россия) (58 км)
Погода в Эссо (Камчатский край, Россия) (92 км)
Погода в Козыревске (Камчатский край, Россия) (115 км)
Погода в Пущино (Камчатский край, Россия) (123 км)
Погода в Семячике (Камчатский край, Россия) (125 км)
Погода в Ключах (Камчатский край, Россия) (175 км)
Погода в Соболево (Камчатский край, Россия) (219 км)
Погода в Иче (Камчатский край, Россия) (227 км)
Погода в Петропавловск-Камч. 2 (Камчатский край, Россия) (229 км)
Погода в Сосновке (Камчатский край, Россия) (231 км)

Пояснения к столбцам:

Ветер - указаны скорость ветра в м/с - средняя за 10 мин, порывы в срок и между сроками (в фигурных скобках) и направление, откуда дует ветер: С - северный, СВ - северо-восточный, В - восточный, ЮВ - юго-восточный, Ю - южный, ЮЗ - юго-западный, З - западный, СЗ - северо-западный.
Видимость - горизонтальная дальность видимости в метрах или километрах. При видимости от 1 до 10 км при отсутствии осадков обычно наблюдается дымка, при ухудшении видимости до 1 км и менее - туман. В сухую погоду видимость может ухудшаться дымом, пылью или мглою.
Явления - указаны атмосферные явления, наблюдавшиеся в срок или в последний час перед сроком; фигурными скобками обозначены явления, наблюдавшиеся между сроками (за 1-3 часа до срока); квадратными скобками обозначены град или гололедные отложения с указанием их диаметра в мм.
Облачность - указаны через наклонную черту общая и нижняя облачность в баллах и высота нижней границы облаков в метрах; квадратными скобками обозначены формы облаков: Ci - перистые, Cs - перисто-слоистые, Cc - перисто-кучевые, Ac - высококучевые, As - высокослоистые, Sc - слоисто-кучевые, Ns - слоисто-дождевые, Cu - кучевые, Cb - кучево-дождевые. Подробнее классификацию облаков см. в Атласе облаков (PDF).
T - Температура воздуха - температура, измеренная на высоте 2 м над землей.
Td - Температура точки росы - температура, при понижении до которой содержащийся в воздухе водяной пар достигнет насыщения.
f - Относительная влажность воздуха - влажноcть воздуха, измеренная на высоте 2 м над землей.
Te - Эффективная температура - температура, которую ощущает одетый по сезону человек в тени. Характеристика душности погоды. При расчете учитывается влияние влажности воздуха и скорости ветра на теплоощущения человека.
Tes - Эффективная температура на солнце - температура, которую ощущает человек, с поправкой на солнечный нагрев. Характеристика знойности погоды. Зависит от высоты солнца над горизонтом, облачности и скорости ветра. Ночью, в пасмурную погоду, а также при ветре 12 м/с и более поправка равна нулю.
P - Атмосферное давление - приведенное к уровню моря атмосферное давление.
Po - Атмосферное давление - измеренное на уровне метеостанции атмосферное давление.
Tmin - Минимальная температура - минимум температуры воздуха на высоте 2 м над землей.
Tmax - Максимальная температура - максимум температуры воздуха на высоте 2 м над землей.
R - Количество осадков - Количество выпавших осадков за период времени, мм. При наведении курсора мыши на число - период времени, за который выпало указанное количество осадков.
R24 - Количество осадков - Количество выпавших осадков за 24 часа, мм.
S - Снежный покров - Высота снежного покрова, см. При наведении курсора мыши на число - состояние снежного покрова и степень покрытия местности в баллах.